Lapse_Rate
6.0 6.0 5.7 5.8 5.9 5.9 5.8 5.4 5.4 5.6 6.0 6.0 5.8 5.6 5.4 5.7 5.8 6.0 5.8 6.0 6.1 6.0 5.9 6.2 6.3 6.2 6.0 5.8 5.7 5.7 5.4 5.5 5.4 5.1 5.4 5.5 5.4 5.5 5.6 5.6 5.2 5.4 5.3
6.1 6.0 5.9 5.7 5.6 5.9 6.0 5.7 5.4 5.5 5.8 5.7 5.7 6.1 5.7 5.7 6.0 6.1 6.0 5.8 5.8 5.8 5.8 5.8 5.9 6.0 6.1 5.7 5.7 5.8 5.5 5.7 5.6 5.3 5.0 5.2 5.4 5.5 5.3 5.5 5.1 5.2 5.2
5.7 6.1 6.0 6.0 6.0 5.8 5.8 5.7 5.7 5.7 5.8 6.0 5.8 5.7 5.6 5.8 5.7 6.0 5.9 5.8 6.0 5.9 5.8 5.9 5.8 5.9 5.9 5.9 5.6 5.6 5.5 5.6 5.6 5.8 5.3 5.0 5.2 5.2 5.3 5.4 5.5 5.4 5.4
5.1 5.5 6.0 6.0 6.0 5.9 5.7 5.7 5.7 5.6 5.6 5.7 5.9 5.8 5.6 5.8 5.9 5.9 5.7 5.8 5.8 5.8 5.8 5.9 5.8 5.7 5.7 5.8 5.7 5.7 5.5 5.6 5.6 5.6 5.4 5.3 5.2 5.2 5.2 5.2 5.3 5.0 5.5
5.4 5.3 5.6 5.9 6.1 6.0 6.0 5.8 6.0 5.9 5.8 5.6 5.8 5.8 5.8 5.8 5.6 5.7 5.7 5.7 5.8 5.8 5.8 5.6 5.6 5.6 5.6 5.7 5.7 5.5 5.5 5.4 5.5 5.5 5.3 5.3 5.4 5.5 5.4 5.3 5.3 5.3 5.7
5.4 5.1 5.3 5.1 5.4 5.8 6.1 6.2 5.9 5.9 5.8 5.7 5.8 5.6 5.7 5.7 5.7 5.7 5.8 5.8 5.7 5.8 5.7 5.7 5.6 5.7 5.7 5.6 5.7 5.7 5.6 5.6 5.5 5.4 5.2 5.2 5.3 5.5 5.4 5.2 5.1 5.1 4.9
5.3 5.3 5.1 5.1 5.3 5.4 5.5 5.6 5.9 5.7 5.7 5.7 5.7 5.7 5.7 5.6 5.7 5.7 5.9 5.8 5.9 5.9 5.7 5.6 5.5 5.6 5.6 5.6 5.7 5.5 5.8 5.7 5.4 5.6 5.6 5.6 5.6 5.4 5.2 5.4 5.2 5.0 4.9
5.1 5.2 4.1 5.5 5.4 5.5 5.3 5.5 5.5 5.4 5.4 5.4 5.2 5.2 5.3 5.3 5.4 5.5 5.6 5.6 5.5 5.6 5.7 5.9 5.9 5.8 5.7 5.5 5.5 5.8 5.8 5.7 5.5 5.5 5.6 5.4 5.3 5.4 5.2 5.1 5.1 5.1 5.0
5.1 4.8 5.0 5.3 5.4 5.5 5.4 5.5 5.4 5.4 5.4 5.3 5.3 5.3 5.3 5.4 5.5 5.4 5.4 5.3 5.5 5.4 5.3 5.6 5.5 5.6 5.5 5.5 5.4 5.5 5.4 5.3 5.3 5.4 5.5 5.4 5.2 5.3 5.2 5.2 5.0 4.8 4.6
5.7 5.3 4.8 5.0 4.7 5.2 5.4 5.5 5.6 5.5 5.6 5.5 5.4 5.4 5.4 5.4 5.4 5.4 5.4 5.6 5.4 5.4 5.4 5.5 5.3 5.1 5.3 5.3 5.2 5.0 5.2 5.4 5.4 5.3 5.3 5.3 5.3 5.2 5.1 5.0 5.1 5.1 4.9
6.2 5.9 6.0 5.5 5.1 5.0 5.2 5.3 5.7 5.7 5.7 5.6 5.4 5.2 5.4 5.5 5.7 5.8 5.7 5.6 5.2 5.1 5.2 5.3 5.5 5.6 5.3 5.0 5.2 5.3 5.0 5.0 5.3 5.2 5.1 5.3 5.3 5.1 5.2 4.9 5.1 5.3 5.0
6.6 7.3 7.1 6.7 5.2 5.1 5.1 5.2 5.4 5.3 5.4 5.3 5.4 5.3 5.4 5.4 5.7 5.8 5.6 5.5 5.3 5.0 5.0 5.2 5.1 5.4 5.0 4.7 4.9 5.1 4.7 4.5 4.9 4.6 4.4 4.8 4.7 4.9 5.0 5.0 5.0 4.9 5.1
6.3 6.8 6.6 6.6 6.3 5.4 4.8 5.3 5.3 5.2 5.2 5.0 5.1 5.1 5.5 5.6 5.9 5.7 5.2 5.4 5.4 5.2 5.1 4.9 4.9 4.8 4.7 4.8 4.8 5.0 4.7 4.3 4.2 4.2 4.4 4.4 4.3 4.4 4.3 4.2 4.3 4.5 4.7
6.6 6.4 6.3 6.3 6.3 6.1 5.0 4.9 4.9 4.7 4.8 5.2 5.3 5.3 5.7 5.8 5.6 5.5 5.4 5.4 5.0 4.8 4.7 4.9 5.3 5.0 4.8 4.8 4.7 4.4 4.4 4.7 4.6 4.5 4.4 4.3 4.1 4.3 4.5 4.5 4.5 4.8 4.9
6.2 6.4 6.5 6.2 6.0 6.1 6.1 5.7 5.4 5.2 5.0 5.1 5.4 5.4 5.7 5.8 6.0 5.7 5.3 5.4 5.0 4.9 4.9 4.7 4.5 4.7 4.7 4.6 4.7 4.7 4.6 4.7 4.7 4.6 4.7 4.5 4.5 4.8 4.6 4.8 4.8 4.7 4.9
5.8 5.9 5.8 6.4 5.9 5.7 6.1 6.1 5.8 5.8 5.9 6.5 6.2 5.9 6.2 5.9 5.4 5.4 5.2 5.1 5.1 4.9 4.8 4.9 4.9 4.6 4.6 4.9 4.8 4.8 5.2 5.0 5.0 5.0 5.0 4.7 5.0 5.1 5.1 5.0 4.6 4.5 4.8
5.8 5.7 5.6 5.5 5.4 5.6 5.9 5.6 5.6 5.9 6.0 6.0 5.7 5.7 5.6 5.3 5.0 4.9 5.2 5.2 5.7 5.5 5.5 5.6 5.6 5.5 5.4 5.3 5.6 5.8 5.4 5.2 5.1 5.2 5.0 5.0 5.0 4.8 4.7 4.5 4.5 4.7 4.3
5.6 5.8 5.9 5.8 6.0 5.9 5.7 5.9 6.0 5.9 5.9 6.0 5.8 5.6 5.6 5.5 5.5 5.4 5.4 5.4 5.4 5.3 5.5 5.5 5.5 5.4 5.4 5.3 5.6 5.7 5.5 5.4 5.2 4.8 5.0 4.8 4.7 4.9 4.8 4.7 4.5 4.4 4.6
6.0 6.0 6.1 6.0 6.0 6.1 6.1 6.1 6.1 6.0 5.8 5.8 5.7 5.7 5.7 5.6 5.4 5.4 5.5 5.6 5.6 5.5 5.3 5.4 5.4 5.3 5.3 5.4 5.5 5.5 5.4 5.5 5.3 5.0 5.1 4.8 4.8 5.0 5.3 4.9 4.7 4.9 5.0
6.1 6.1 6.1 6.1 6.3 6.2 6.2 6.2 6.1 6.1 5.9 5.9 5.8 5.8 5.7 5.6 5.6 5.7 5.6 5.6 5.6 5.5 5.5 5.5 5.6 5.6 5.6 5.5 5.6 5.6 5.5 5.5 5.5 5.5 5.3 5.2 5.1 5.1 5.3 5.2 5.3 5.4 5.3
6.3 5.9 5.8 5.8 5.9 6.0 6.2 6.2 6.1 6.0 5.9 5.8 5.5 5.8 5.8 5.8 5.8 5.8 5.8 5.8 5.7 5.6 5.5 5.5 5.5 5.5 5.5 5.5 5.5 5.6 5.7 5.9 5.9 5.7 5.6 5.4 5.3 5.4 5.5 5.3 5.3 5.3 5.3
5.9 5.4 5.6 5.8 6.1 6.0 5.7 5.6 5.7 5.9 6.2 6.3 6.2 6.1 6.2 6.1 5.9 5.7 5.7 5.6 5.6 5.8 5.8 5.8 5.7 5.7 5.7 5.7 5.7 5.8 5.8 5.8 5.7 5.7 5.8 5.8 5.6 5.5 5.3 5.4 5.5 5.4 5.4
5.9 4.8 4.7 4.7 5.3 5.1 5.5 5.5 5.6 5.7 5.6 5.8 5.7 5.7 5.7 5.8 5.9 6.0 6.0 6.1 6.1 6.1 6.0 6.0 5.9 6.0 6.0 5.9 5.9 5.8 5.7 5.8 5.6 5.5 5.5 5.4 5.4 5.5 5.4 5.4 5.5 5.6 5.7
5.7 5.5 4.9 5.0 4.8 5.1 5.2 5.5 5.3 5.1 4.9 5.2 5.7 5.7 5.4 5.3 5.4 5.6 5.6 5.6 5.4 5.4 5.5 5.5 5.3 5.5 5.6 5.3 5.5 5.6 5.6 5.4 5.5 5.7 5.7 5.7 5.7 5.7 5.6 5.7 5.8 5.8 5.7
6.2 5.9 5.4 5.2 5.1 4.9 5.0 5.2 5.2 5.0 5.0 4.9 4.5 4.7 5.3 5.6 5.6 5.5 5.5 5.4 5.5 5.5 5.5 5.5 5.6 5.6 5.6 5.7 5.6 5.6 5.5 5.5 5.6 5.7 5.7 5.7 5.7 5.7 5.8 5.8 5.7 5.7 5.7
6.1 5.7 5.1 4.7 5.0 5.1 5.2 5.2 5.4 5.2 5.0 5.0 5.3 5.1 4.7 4.6 4.6 4.7 4.7 4.9 5.0 5.0 5.1 5.1 5.2 5.5 5.8 5.9 5.5 5.3 5.4 5.6 5.7 5.6 5.5 5.5 5.5 5.6 5.6 5.5 5.5 5.6 5.8
Wind_Speed
13 11 9 7 7 6 6 5 5 4 6 6 6 6 5 3 4 4 6 4 3 3 3 3 5 5 4 2 1 2 3 1 2 2 2 4 5 8 11 13 13 12 14
15 13 11 9 7 8 7 7 7 7 6 7 7 6 6 5 5 5 6 4 3 5 6 5 7 4 4 3 1 1 2 3 1 1 2 2 3 3 7 8 10 10 12
12 14 12 12 11 8 7 7 8 7 7 7 7 6 7 6 6 5 6 6 6 5 5 5 6 6 5 3 2 1 1 1 1 2 1 2 3 5 4 5 6 10 10
5 12 13 12 13 12 12 11 8 7 7 7 6 7 7 7 6 6 6 6 6 6 6 6 6 6 6 7 5 4 2 1 1 0 1 1 2 3 2 5 3 3 5
9 13 8 11 9 8 11 11 8 8 7 7 6 6 6 5 5 7 6 7 7 7 6 5 3 3 4 3 2 3 3 2 2 2 2 1 2 2 3 3 4 4 4
6 10 19 7 7 8 7 8 8 8 7 7 7 7 6 5 7 7 5 6 7 6 6 6 5 6 5 4 3 3 1 4 4 3 2 3 4 4 3 4 4 3 3
6 3 16 8 8 6 5 5 6 6 6 7 7 7 7 7 11 8 5 4 5 6 6 6 5 3 6 6 7 10 9 8 5 2 2 2 3 1 2 3 4 3 3
6 5 10 16 5 5 6 6 5 4 6 6 6 6 5 2 8 4 1 3 4 4 4 3 1 2 2 6 6 6 5 5 4 4 4 4 3 4 4 2 3 5 5
4 8 8 5 8 7 7 5 3 0 2 3 2 4 3 4 4 4 2 3 4 5 3 5 3 4 3 4 4 8 6 6 18 22 19 16 18 20 14 2 2 4 2
5 6 6 6 4 3 5 4 4 4 6 6 8 7 10 6 10 9 6 2 4 1 4 5 9 4 4 7 4 7 7 6 6 5 5 13 17 18 23 13 5 2 3
5 4 6 7 5 5 5 3 2 4 7 7 7 6 7 6 5 7 6 2 3 1 4 3 3 3 9 11 8 7 7 10 10 7 6 5 7 9 12 17 17 5 4
6 7 6 7 7 3 6 3 4 4 6 4 5 4 3 4 8 7 7 5 2 3 3 4 4 6 12 12 10 12 14 9 5 5 5 5 5 5 4 9 10 10 9
5 7 7 7 6 4 4 5 3 2 4 4 4 4 3 2 4 10 8 10 10 6 5 8 10 10 11 11 12 11 8 4 5 4 4 3 2 2 3 2 6 7 9
5 8 8 8 8 7 6 5 4 4 2 4 4 3 3 4 3 3 3 5 10 9 10 5 7 9 10 7 5 5 4 3 4 4 2 2 2 1 2 3 3 3 2
7 7 7 6 6 6 7 4 3 2 2 3 3 3 4 4 2 1 2 3 3 6 6 3 2 2 3 3 3 3 3 3 4 3 3 3 2 2 2 2 1 2 3
6 5 4 4 3 4 5 4 10 8 10 10 8 6 4 7 6 8 10 9 8 3 3 3 3 3 3 3 3 3 2 3 2 2 2 2 1 2 2 2 2 2 4
5 4 3 4 3 2 3 4 4 5 11 11 12 12 9 6 9 10 11 9 6 3 3 4 4 4 2 3 3 3 2 3 3 1 2 4 3 3 1 2 2 3 3
4 5 3 3 3 3 3 3 4 3 3 2 6 5 6 5 8 8 8 7 3 4 2 3 3 4 3 2 2 2 2 2 1 2 3 2 2 2 2 2 2 2 3
4 4 4 4 4 5 4 3 4 5 4 4 2 2 4 6 4 3 4 1 2 3 4 3 3 3 3 3 3 3 3 3 3 2 2 2 2 2 2 3 3 4 4
3 6 5 4 3 4 4 4 5 5 4 4 4 4 4 3 2 3 3 3 3 2 4 4 4 4 4 4 3 3 2 2 2 2 3 2 1 1 4 4 3 2 2
4 5 7 3 4 5 5 5 5 4 4 4 4 5 10 5 5 4 4 4 4 4 5 5 5 4 5 5 4 4 4 4 4 4 2 3 3 3 3 4 4 4 3
5 5 5 6 5 5 4 5 4 4 6 5 4 5 13 4 4 5 5 5 5 3 4 5 5 5 5 5 5 5 4 5 4 3 3 4 4 3 3 3 3 2 2
2 4 6 3 7 6 4 5 4 5 5 5 5 5 5 5 5 4 5 5 5 3 7 8 4 4 10 9 12 8 4 4 6 7 5 5 4 4 3 2 2 2 3
4 5 4 5 5 5 5 4 4 4 6 6 6 5 6 5 6 6 5 4 4 5 10 11 10 9 10 10 12 11 10 8 13 13 13 5 4 5 4 3 4 5 4
4 5 4 3 5 5 3 3 2 3 4 4 8 6 5 6 5 5 6 6 6 6 8 14 15 15 14 18 16 16 17 17 19 17 13 12 6 7 6 4 4 5 5
5 5 3 2 4 2 4 5 4 3 1 4 4 4 6 5 5 4 5 5 5 5 8 14 18 19 18 23 21 16 15 20 21 20 19 13 5 5 5 6 6 3 4
Wind_Direction
180 179 170 176 187 193 185 181 173 177 173 186 178 192 176 212 221 185 211 212 263 273 285 302 293 274 283 339 6 18 0 44 110 311 155 151 132 153 119 119 116 108 106
175 179 183 181 187 187 190 189 204 195 193 181 179 182 214 228 233 223 205 220 231 242 256 265 269 277 299 280 332 330 84 62 108 217 246 175 126 149 148 139 132 119 112
173 176 184 189 190 192 202 194 196 196 190 194 185 192 210 219 229 231 206 211 229 234 242 249 264 267 267 252 242 308 34 59 153 142 253 57 86 149 156 125 134 120 110
215 173 187 187 199 197 199 201 196 188 194 205 206 201 200 207 220 223 216 220 228 230 241 248 268 272 258 233 216 210 173 95 319 23 276 243 152 184 140 156 158 122 154
5 351 196 196 200 187 181 190 181 186 192 189 208 220 210 202 215 222 226 223 222 234 245 252 241 130 84 24 215 230 187 178 210 223 237 274 241 196 202 193 172 164 179
30 345 306 181 198 208 185 179 175 197 195 186 200 202 218 219 205 196 223 232 221 219 236 256 250 180 171 163 145 56 60 196 201 195 218 215 258 219 179 181 154 162 198
129 35 309 263 173 181 182 164 161 174 173 188 199 198 208 211 188 193 199 213 206 230 227 236 253 241 181 154 126 119 90 50 352 150 217 200 241 296 267 212 200 156 173
119 141 270 283 236 185 185 191 208 190 207 207 211 217 213 173 178 177 156 249 234 240 238 264 212 294 341 168 166 125 88 53 12 61 80 75 19 317 279 251 175 108 92
156 189 235 282 297 241 210 171 118 17 285 276 290 265 235 118 98 103 120 265 261 262 91 49 63 98 40 76 154 131 95 77 78 78 72 58 45 32 16 128 105 143 128
254 196 218 219 210 206 102 97 102 87 72 68 62 48 59 77 35 22 8 303 274 301 89 87 64 120 100 83 153 143 127 155 116 62 36 38 36 33 32 35 357 125 115
167 125 101 93 99 102 85 60 82 98 94 89 89 75 77 60 50 21 358 282 294 63 121 84 54 103 107 95 97 136 128 117 104 96 86 70 55 45 38 31 30 13 55
106 110 105 99 89 77 102 66 64 99 96 91 103 82 63 74 47 36 20 45 62 100 96 89 62 54 70 78 89 102 101 105 106 99 87 66 68 70 80 76 68 58 64
103 98 93 87 88 75 88 95 58 65 98 115 120 111 111 118 76 57 49 73 79 93 87 100 100 66 71 75 82 92 86 91 104 94 91 93 103 127 133 101 86 84 72
86 95 86 78 72 44 47 37 40 33 108 118 99 118 121 84 66 55 63 76 77 94 106 91 87 90 90 87 94 89 100 106 110 109 105 107 117 196 170 205 192 191 140
78 78 82 83 79 74 63 41 77 16 324 79 70 87 100 99 87 14 49 93 96 111 112 108 94 80 98 97 79 76 89 109 109 123 139 151 202 243 227 113 34 185 200
75 67 75 87 102 117 112 89 54 65 45 56 72 91 69 64 88 106 96 92 106 93 72 79 73 63 72 73 80 76 44 81 76 100 103 153 232 230 226 180 148 49 98
101 100 95 97 98 104 109 114 96 41 60 50 55 63 69 116 107 110 107 104 88 60 93 114 115 113 131 133 135 128 132 141 146 190 245 231 191 187 314 349 5 144 121
130 156 145 153 141 149 165 153 132 139 136 103 42 93 74 100 121 123 122 112 98 86 116 119 137 145 165 146 137 101 125 115 128 137 138 174 138 135 122 101 86 105 113
169 187 165 154 160 168 161 160 162 146 140 138 135 88 83 79 82 53 8 317 177 160 164 175 175 173 155 166 166 164 169 176 172 175 173 176 173 143 95 122 113 118 110
159 135 157 171 171 179 185 190 198 161 155 165 173 175 151 125 164 206 227 248 260 203 184 182 178 166 172 183 185 185 179 171 188 195 228 236 224 15 162 148 131 119 97
185 177 179 185 218 215 194 190 180 164 180 178 197 172 178 175 193 194 209 228 237 240 180 176 175 182 180 188 180 184 183 200 210 215 231 175 130 92 102 128 113 103 124
204 196 196 195 203 217 191 169 169 163 152 161 154 180 184 203 194 197 212 226 240 238 171 159 167 175 172 174 182 189 194 204 209 173 144 129 109 111 107 109 109 132 160
160 221 246 197 170 180 198 193 188 192 182 165 164 166 184 207 230 231 205 194 177 148 142 142 153 156 168 173 188 187 177 182 186 155 149 150 142 143 145 164 168 191 205
302 313 327 181 157 172 185 210 240 169 174 175 169 181 191 204 203 211 215 210 192 177 177 167 172 175 189 186 188 194 209 214 181 170 166 157 166 182 184 205 213 223 223
255 280 314 322 173 176 187 193 216 240 211 180 166 184 209 212 209 198 194 193 185 178 185 186 194 202 197 191 201 208 213 196 189 187 179 178 193 201 203 210 223 226 196
248 252 249 124 82 127 179 198 218 226 173 188 194 167 168 196 216 205 191 190 189 195 189 191 199 203 196 195 202 203 206 201 185 188 192 192 191 211 199 218 251 226 168